Temp
9 10 10 10 10 10 11 11 11 11 11 12 12 12 13 13 13 14 14 15 15 16 16 16 16 16 15 15 17 18 17 16 16 16 16 16 16 16 14 15 16 15 15 16 16 16 15
9 9 9 9 10 10 11 11 12 11 12 12 12 12 12 12 13 13 14 14 15 16 16 15 15 15 14 11 17 16 16 16 16 16 15 15 16 16 15 15 15 16 15 15 15 14 14
9 9 9 10 11 11 11 12 12 12 12 12 12 12 12 12 13 13 14 14 15 15 16 16 15 14 12 16 16 16 15 15 15 15 15 15 15 15 15 15 15 15 14 12 12 13 13
10 10 10 11 11 11 11 12 12 12 12 12 12 12 12 12 13 13 14 14 15 15 16 16 15 13 13 15 15 15 14 14 14 14 14 14 14 14 14 15 14 14 13 12 13 10 13
11 11 10 11 11 11 11 11 11 11 12 12 12 13 13 13 13 13 14 14 15 15 15 14 13 12 13 14 14 14 14 14 13 13 14 14 13 14 14 11 10 10 10 9 11 10 10
11 11 11 11 11 11 11 11 11 11 11 11 12 12 12 12 12 13 13 14 14 14 14 13 12 12 14 14 14 14 14 13 13 13 13 13 13 10 8 9 11 10 9 9 11 12 10
10 11 11 11 10 10 10 10 10 10 11 11 11 11 12 12 12 12 12 13 13 13 13 13 14 14 14 14 14 14 14 13 12 12 10 12 10 9 10 10 12 12 10 11 11 12 10
10 10 10 10 9 9 9 9 9 9 9 9 10 11 11 11 11 11 11 11 9 9 7 12 12 11 12 12 12 12 13 13 11 9 10 10 9 11 11 10 10 10 10 10 11 11 10
10 10 10 9 9 8 8 8 8 8 8 8 9 9 9 10 10 10 10 9 8 7 5 10 11 11 11 11 11 12 12 12 10 9 9 8 11 11 11 11 10 9 9 10 10 12 10
9 9 8 7 7 6 6 6 7 6 6 7 7 8 8 9 9 9 8 8 7 7 5 9 11 11 11 11 11 11 11 12 11 10 8 8 11 11 10 10 9 9 10 11 11 11 10
7 6 5 5 4 5 5 4 4 5 5 6 6 6 7 7 8 8 8 7 7 7 7 12 11 11 11 11 11 10 11 11 10 11 11 10 11 12 10 11 11 11 12 10 11 9 9
6 6 4 3 3 3 4 4 4 4 5 5 5 6 6 7 7 8 8 8 8 7 7 11 10 11 10 10 11 10 10 10 10 9 8 8 11 12 10 12 10 12 12 9 7 7 7
6 5 4 3 3 3 3 3 3 4 4 4 5 5 5 6 7 7 7 7 5 6 10 11 10 10 11 10 10 9 9 8 9 9 8 8 10 10 11 11 10 11 9 7 8 6 8
4 3 3 3 3 3 3 3 3 3 4 4 4 5 5 5 6 6 6 5 6 8 8 9 9 9 10 11 10 9 8 8 8 8 6 6 7 10 10 11 10 8 8 7 9 8 8
3 2 2 2 2 2 2 2 3 3 3 3 4 5 5 5 4 5 5 3 5 6 8 7 8 8 9 9 8 9 8 8 9 7 8 7 8 10 10 10 10 9 7 10 8 8 6
1 1 2 2 2 2 2 2 2 2 3 2 3 4 4 4 4 5 5 5 5 7 7 7 7 8 8 6 7 7 7 9 9 8 8 8 6 9 9 9 10 9 9 8 6 7 9
1 1 1 1 1 1 1 1 2 2 2 2 3 2 4 4 4 4 2 3 6 7 7 6 6 6 6 6 7 6 7 8 7 7 7 6 6 7 8 8 8 8 7 7 8 6 8
1 1 1 1 1 1 1 1 1 2 2 2 2 1 4 4 3 2 1 4 6 6 7 6 5 5 5 5 5 5 6 7 6 6 5 4 4 4 6 7 8 8 8 8 8 7 6
1 1 1 1 1 1 1 1 1 1 1 1 2 2 3 3 1 0 2 4 5 5 5 6 6 5 6 5 4 4 5 6 6 5 4 4 3 4 5 6 7 7 7 7 5 4 5
1 1 1 1 1 0 0 0 0 1 1 1 1 -0 2 2 2 3 3 3 3 5 4 5 4 4 3 3 3 4 4 6 5 5 5 4 2 3 4 5 5 4 5 5 5 4 5
0 0 1 1 0 0 0 0 0 0 0 0 0 0 2 -2 1 1 1 1 2 2 4 4 4 3 3 3 3 3 3 3 4 5 4 1 1 1 3 3 3 3 3 4 3 4 3
0 1 0 0 0 0 0 0 -0 0 0 -0 1 1 2 1 2 -0 1 1 2 3 2 2 2 3 3 2 3 3 2 2 2 3 2 0 1 2 1 3 3 3 3 3 3 4 4
0 0 0 0 0 0 0 0 -0 -0 -0 -1 0 0 0 0 0 -1 -2 1 2 2 2 2 3 2 2 2 3 2 1 1 1 0 -0 2 2 2 2 2 1 -0 -3 -2 -1 -4 -4
-0 -0 0 0 0 0 0 0 0 0 -0 -1 -0 -0 -0 1 1 1 1 2 2 2 2 2 2 0 2 2 0 -0 -1 -1 -1 -1 0 1 1 1 1 -3 -0 -2 -4 -4 -3 -5 -6
-0 -0 -1 -0 -0 -0 -0 -0 -0 -1 -1 -0 -0 -1 -0 0 0 -0 1 2 2 2 0 1 2 2 0 0 -0 -3 -3 -3 -3 0 -1 -0 0 1 1 1 0 -3 -4 -5 -5 -6 -7
-0 -0 -1 -0 -0 -0 -0 -0 -0 -1 -1 -1 -1 -1 -1 -1 1 1 -0 1 -0 -0 -0 -1 -1 -1 -0 -0 -0 -2 -2 -1 -2 -2 -3 -1 -0 0 -3 1 1 -7 -6 -6 -6 -6 -8
-1 -1 -1 -1 -1 -1 -0 -0 -0 -1 -1 -1 -1 -1 -1 -1 -0 -0 0 0 -0 -0 -1 -0 -1 -2 -2 -0 1 -1 -2 -3 -2 -3 -2 -2 -2 -1 -1 1 -4 -8 -8 -7 -3 -5 -8
-1 -2 -1 -1 -1 -1 -0 -1 -1 -1 -1 -1 -1 -1 -1 -1 -1 -0 -0 -0 -0 -0 -0 -1 -1 -2 -2 -1 -1 -2 -4 -2 -1 -2 -3 -4 -4 -5 -3 -1 -3 -9 -8 -8 -10 -9 -9
-2 -2 -2 -1 -1 -1 -1 -1 -1 -1 -1 -1 -2 -1 -1 -1 -1 -1 -0 -0 -0 -1 -1 -1 -0 -2 -1 -2 -4 -2 -1 -7 -6 -5 -6 -3 -9 -5 -6 -7 -9 -11 -11 -11 -11 -11 -9
Height
1574 1572 1571 1569 1566 1564 1561 1559 1557 1554 1552 1549 1547 1544 1541 1538 1535 1531 1528 1524 1520 1517 1514 1512 1510 1507 1506 1504 1498 1497 1497 1497 1497 1497 1498 1498 1497 1497 1498 1496 1495 1495 1492 1491 1490 1490 1490
1576 1573 1571 1569 1567 1564 1562 1559 1556 1554 1552 1549 1546 1543 1539 1536 1532 1528 1524 1521 1517 1514 1512 1509 1506 1505 1504 1504 1496 1495 1495 1496 1496 1496 1496 1497 1495 1495 1495 1493 1492 1489 1489 1488 1488 1488 1489
1576 1574 1571 1569 1567 1564 1561 1559 1556 1553 1550 1548 1545 1541 1537 1533 1529 1525 1522 1518 1514 1510 1507 1505 1503 1502 1500 1494 1493 1493 1493 1493 1494 1494 1494 1495 1495 1495 1493 1492 1490 1488 1489 1486 1482 1483 1485
1575 1574 1572 1569 1567 1564 1561 1558 1555 1553 1550 1546 1543 1539 1535 1531 1527 1523 1520 1516 1511 1506 1503 1500 1499 1499 1496 1491 1490 1490 1490 1491 1491 1491 1492 1493 1493 1493 1493 1491 1490 1491 1492 1495 1477 1478 1479
1575 1573 1570 1568 1566 1563 1560 1557 1554 1551 1548 1545 1541 1537 1534 1529 1525 1520 1516 1513 1508 1503 1500 1498 1497 1497 1491 1489 1488 1488 1489 1490 1490 1491 1491 1491 1491 1491 1490 1494 1501 1497 1500 1498 1485 1475 1477
1573 1571 1568 1566 1563 1560 1557 1554 1552 1548 1545 1542 1539 1535 1532 1528 1523 1518 1514 1510 1505 1500 1498 1497 1495 1497 1490 1487 1486 1486 1487 1488 1489 1490 1491 1492 1491 1491 1492 1496 1501 1495 1497 1491 1484 1474 1477
1571 1569 1566 1563 1561 1558 1555 1551 1548 1545 1541 1538 1535 1532 1529 1525 1521 1516 1511 1508 1506 1501 1497 1495 1491 1488 1485 1484 1484 1484 1485 1487 1488 1489 1491 1489 1492 1488 1481 1479 1477 1480 1484 1481 1470 1467 1474
1568 1565 1563 1560 1557 1554 1551 1548 1545 1541 1538 1534 1531 1528 1525 1522 1519 1516 1512 1510 1510 1510 1492 1484 1480 1480 1479 1481 1481 1481 1483 1485 1485 1488 1487 1493 1489 1477 1478 1481 1482 1483 1483 1478 1471 1465 1470
1565 1562 1559 1556 1553 1550 1547 1544 1541 1538 1534 1531 1528 1525 1522 1519 1516 1515 1512 1511 1509 1507 1502 1478 1476 1476 1476 1476 1476 1477 1479 1479 1481 1484 1486 1490 1471 1472 1479 1481 1482 1482 1484 1478 1477 1467 1464
1561 1557 1554 1550 1547 1544 1541 1538 1536 1533 1530 1528 1525 1523 1520 1517 1518 1514 1513 1511 1508 1506 1506 1482 1476 1475 1476 1475 1476 1475 1476 1479 1479 1481 1481 1482 1471 1471 1474 1476 1478 1484 1470 1472 1472 1474 1473
1556 1553 1550 1547 1545 1542 1539 1536 1532 1530 1527 1524 1522 1519 1516 1514 1515 1513 1513 1510 1508 1507 1518 1475 1474 1475 1474 1476 1474 1475 1474 1475 1476 1473 1475 1475 1468 1468 1471 1466 1467 1468 1464 1468 1467 1470 1469
1553 1550 1548 1545 1542 1540 1537 1534 1531 1528 1525 1521 1518 1516 1512 1512 1511 1511 1510 1509 1509 1512 1511 1474 1472 1472 1474 1472 1471 1471 1472 1474 1472 1472 1472 1469 1464 1464 1462 1458 1461 1460 1463 1469 1474 1475 1475
1549 1546 1544 1541 1539 1536 1534 1532 1529 1526 1523 1519 1516 1512 1510 1507 1507 1507 1507 1508 1518 1518 1478 1479 1477 1477 1475 1473 1473 1472 1473 1474 1475 1476 1474 1468 1462 1456 1456 1461 1461 1462 1472 1486 1478 1487 1460
1546 1543 1540 1537 1534 1532 1530 1528 1526 1524 1521 1516 1513 1509 1506 1505 1504 1504 1506 1510 1512 1489 1483 1480 1482 1477 1477 1472 1472 1472 1475 1476 1470 1473 1479 1480 1471 1457 1457 1458 1461 1468 1471 1484 1467 1467 1454
1542 1539 1536 1534 1531 1529 1527 1525 1523 1521 1519 1514 1510 1506 1502 1502 1502 1503 1506 1516 1503 1494 1487 1486 1482 1480 1477 1476 1477 1475 1477 1474 1468 1470 1474 1473 1467 1454 1455 1454 1456 1463 1469 1456 1464 1459 1465
1538 1536 1533 1529 1527 1525 1523 1521 1520 1518 1516 1513 1509 1505 1501 1501 1500 1503 1505 1502 1497 1489 1490 1489 1488 1483 1482 1482 1481 1481 1478 1472 1472 1471 1471 1470 1472 1457 1455 1455 1455 1457 1456 1465 1469 1467 1447
1535 1533 1531 1528 1524 1523 1520 1519 1517 1515 1513 1511 1508 1505 1502 1501 1501 1502 1504 1496 1489 1487 1489 1489 1487 1487 1486 1484 1483 1484 1479 1474 1474 1473 1472 1473 1472 1464 1459 1459 1458 1460 1461 1459 1457 1458 1446
1532 1530 1528 1526 1523 1520 1518 1517 1516 1514 1512 1510 1507 1506 1501 1501 1504 1501 1500 1492 1488 1486 1487 1487 1485 1483 1484 1482 1483 1482 1478 1474 1473 1472 1473 1474 1474 1472 1464 1457 1451 1452 1451 1454 1455 1448 1450
1528 1526 1525 1522 1520 1517 1515 1513 1513 1512 1510 1509 1507 1503 1498 1498 1500 1499 1494 1491 1489 1486 1484 1483 1482 1481 1481 1481 1484 1481 1476 1474 1474 1475 1478 1477 1478 1472 1463 1455 1453 1453 1454 1456 1460 1461 1446
1522 1521 1519 1517 1516 1514 1512 1510 1509 1508 1508 1507 1507 1502 1497 1496 1495 1493 1492 1491 1489 1484 1482 1480 1478 1480 1482 1483 1480 1479 1477 1472 1472 1473 1474 1476 1479 1478 1469 1463 1464 1463 1457 1455 1460 1455 1443
1516 1515 1513 1511 1510 1508 1507 1506 1505 1504 1505 1505 1504 1498 1494 1497 1492 1492 1491 1490 1489 1487 1481 1480 1478 1478 1478 1479 1477 1476 1476 1475 1472 1470 1470 1473 1477 1473 1464 1464 1463 1460 1457 1454 1453 1442 1446
1510 1508 1507 1506 1504 1503 1503 1502 1502 1501 1501 1500 1497 1496 1493 1490 1489 1489 1488 1485 1485 1483 1485 1481 1478 1477 1478 1478 1477 1472 1474 1476 1474 1469 1469 1470 1468 1465 1460 1457 1456 1454 1447 1440 1440 1434 1431
1503 1501 1499 1498 1498 1497 1496 1496 1496 1497 1496 1493 1491 1490 1490 1485 1484 1486 1483 1478 1476 1479 1478 1477 1477 1478 1476 1472 1471 1470 1469 1470 1468 1469 1470 1467 1464 1462 1454 1452 1456 1459 1460 1453 1451 1458 1459
1495 1493 1492 1489 1489 1489 1489 1488 1489 1489 1489 1489 1488 1486 1483 1474 1477 1475 1474 1474 1474 1473 1474 1473 1474 1474 1470 1466 1467 1465 1462 1459 1461 1461 1464 1460 1462 1461 1454 1464 1462 1458 1460 1460 1459 1464 1465
1486 1484 1483 1481 1481 1481 1481 1481 1481 1480 1481 1480 1482 1483 1479 1465 1470 1469 1469 1467 1468 1469 1470 1468 1465 1466 1466 1466 1466 1470 1463 1460 1457 1453 1454 1456 1458 1452 1451 1452 1448 1458 1461 1465 1464 1463 1464
1478 1476 1474 1473 1472 1471 1470 1471 1472 1472 1471 1472 1471 1475 1474 1466 1458 1462 1463 1462 1464 1465 1466 1462 1461 1461 1464 1462 1463 1468 1466 1457 1459 1455 1455 1452 1452 1453 1462 1450 1445 1469 1464 1462 1463 1461 1461
1468 1467 1466 1465 1464 1463 1461 1461 1461 1461 1462 1463 1462 1466 1466 1462 1456 1458 1457 1456 1458 1459 1459 1456 1456 1457 1459 1457 1454 1458 1462 1459 1458 1457 1452 1453 1455 1452 1449 1444 1458 1472 1464 1459 1454 1463 1462
1458 1457 1457 1456 1455 1455 1453 1453 1452 1452 1452 1452 1452 1455 1455 1452 1452 1452 1450 1451 1453 1453 1454 1454 1455 1453 1455 1453 1452 1455 1460 1450 1446 1448 1452 1455 1458 1462 1455 1446 1452 1469 1462 1466 1477 1468 1466
1452 1450 1448 1448 1447 1446 1445 1444 1444 1443 1443 1443 1443 1444 1441 1444 1444 1444 1444 1445 1447 1448 1450 1450 1448 1447 1446 1445 1448 1445 1444 1456 1456 1459 1455 1455 1471 1463 1467 1469 1477 1476 1476 1476 1473 1470 1464
Wind_Speed
12 13 14 14 15 17 17 16 17 17 17 18 19 20 20 21 21 21 21 21 20 19 17 16 16 16 13 8 13 12 10 8 7 8 10 11 12 7 5 5 3 5 3 7 8 9 9
14 15 15 16 17 18 18 19 18 18 18 19 21 22 22 22 22 22 22 22 22 22 21 19 17 16 12 7 9 8 9 8 8 9 10 12 8 9 5 5 6 4 4 6 8 10 8
12 14 16 17 16 18 19 21 21 21 21 21 21 22 22 23 23 24 23 24 24 23 22 21 20 16 15 22 13 9 10 10 10 9 10 11 11 8 3 3 4 2 4 5 9 9 6
13 15 17 18 19 20 21 21 22 23 24 25 25 24 24 25 26 26 26 25 24 23 21 17 14 13 11 11 11 11 11 11 10 10 10 10 9 9 5 2 2 2 1 3 2 9 5
15 15 17 18 19 20 22 23 24 24 24 25 25 25 24 25 26 27 26 25 25 22 18 14 9 7 9 6 8 7 8 6 7 6 6 6 7 6 4 4 4 3 5 6 8 12 4
17 18 19 21 22 22 23 23 25 25 25 25 25 25 25 25 25 25 25 23 18 19 12 8 6 5 7 4 4 3 5 6 4 4 3 5 4 2 1 4 8 8 6 6 7 5 3
18 19 20 21 21 23 23 23 23 24 25 25 26 25 24 24 23 22 25 20 12 5 12 16 21 21 26 15 8 9 8 7 7 5 4 4 3 10 16 14 3 4 5 6 5 6 6
20 20 21 21 22 22 23 23 23 23 23 23 23 22 21 19 19 17 16 10 8 9 17 26 25 25 28 14 6 8 9 7 6 6 2 2 13 8 3 6 8 7 5 13 8 6 8
21 21 22 23 23 21 21 22 22 22 23 23 23 23 21 16 13 11 11 11 14 12 6 13 2 2 1 8 7 7 14 6 5 5 7 8 10 3 3 5 8 5 9 7 10 5 5
22 24 25 24 23 23 23 23 23 21 20 21 22 21 20 18 7 10 7 12 14 11 3 7 2 1 2 3 2 4 12 5 3 6 6 7 8 11 7 10 8 6 7 11 8 3 12
24 23 22 20 19 19 19 19 20 20 20 21 21 20 17 15 12 8 8 12 13 4 6 1 1 2 3 3 3 4 9 6 5 4 4 8 3 3 6 9 6 10 4 8 5 5 4
25 23 20 19 19 19 19 19 19 20 21 22 21 19 19 12 12 10 8 10 7 4 8 2 2 1 1 3 2 5 3 7 3 2 3 10 3 3 6 3 6 1 1 4 4 2 7
23 22 21 20 20 20 20 20 19 19 21 22 21 19 17 13 8 7 9 6 3 4 5 2 2 3 2 3 3 4 3 2 4 2 3 4 5 4 4 3 3 3 5 4 3 1 9
22 21 20 20 20 21 21 19 20 20 21 22 21 19 14 10 8 6 5 3 5 3 6 4 7 5 4 1 2 3 3 3 5 1 1 3 6 3 2 5 4 6 8 5 6 4 6
21 22 21 19 18 18 19 20 21 22 20 21 21 16 11 4 1 2 5 2 5 3 4 7 4 3 3 2 5 5 3 3 2 5 4 3 5 1 4 1 6 1 5 6 4 5 5
22 21 22 19 16 18 19 19 19 19 18 18 21 19 7 3 3 5 3 6 4 1 4 4 1 3 3 4 5 5 3 1 4 3 3 2 7 4 4 1 2 4 3 2 1 4 12
23 21 21 21 17 16 20 18 17 16 16 15 15 11 4 3 6 5 3 6 3 9 7 2 1 4 2 4 3 2 5 6 4 3 2 1 4 3 3 3 7 1 3 4 3 4 7
23 23 21 21 19 17 19 18 16 15 15 12 6 3 3 2 0 3 3 3 3 3 3 4 3 6 6 6 4 6 6 8 5 4 4 3 2 5 8 12 9 5 4 2 6 13 6
24 22 24 23 20 20 19 19 17 14 13 12 7 8 9 8 3 3 4 4 5 4 6 3 3 3 1 4 3 4 4 3 4 3 3 4 2 6 8 3 3 2 2 1 7 5 14
25 26 25 24 25 21 20 20 18 15 12 9 4 3 4 6 5 4 4 5 4 6 6 5 4 4 3 4 6 4 3 2 2 4 4 5 3 6 13 10 6 14 18 18 11 9 16
26 26 24 24 22 22 21 18 18 14 12 10 7 5 5 2 5 6 2 2 3 4 3 5 2 5 3 3 3 6 4 4 6 10 3 6 6 7 13 14 13 17 18 18 20 23 14
27 27 26 26 24 22 22 20 17 15 13 15 8 5 4 5 6 5 5 4 4 6 4 4 3 7 4 5 6 3 4 4 7 4 6 3 6 4 14 15 14 16 17 19 19 23 22
29 30 29 27 27 26 24 21 19 16 15 12 15 19 12 5 3 3 5 6 6 5 9 15 6 5 7 14 16 13 12 12 9 5 5 4 3 2 8 6 3 7 4 3 3 7 5
31 32 32 33 30 29 25 25 21 20 19 22 22 13 9 5 7 6 5 8 8 8 8 13 16 4 7 7 11 15 18 19 19 15 14 10 7 3 6 3 2 3 1 3 2 6 6
30 31 30 30 30 30 26 27 27 24 23 24 25 24 12 5 11 9 15 10 12 14 5 10 25 20 11 4 2 4 4 5 2 3 8 12 6 3 2 2 2 1 5 5 3 3 10
31 30 30 29 29 32 31 31 31 29 25 25 26 25 24 7 10 20 10 16 5 4 7 6 9 9 8 3 3 4 4 3 4 2 3 1 3 1 1 3 4 1 8 8 5 4 17
33 32 31 31 30 28 28 28 28 30 28 25 28 25 26 20 14 15 7 7 7 6 3 4 4 6 11 3 3 3 4 3 2 3 4 2 0 5 7 6 2 6 16 13 1 5 26
28 32 33 30 30 29 29 27 25 26 28 24 29 28 29 15 20 15 16 12 8 7 5 5 0 4 3 5 3 4 4 4 2 1 4 4 3 3 1 4 5 21 4 5 8 16 18
29 27 28 29 28 29 30 26 25 26 24 22 30 32 31 23 11 16 24 20 22 21 10 5 6 2 8 2 2 2 3 1 3 3 5 1 1 1 2 2 7 14 11 12 18 17 19
Wind_Direction
27 19 14 11 7 7 1 360 359 357 357 357 355 352 350 347 343 337 332 326 317 312 308 305 303 301 298 277 260 267 256 262 255 240 225 207 192 190 195 207 244 222 241 232 243 240 248
3 7 8 1 358 354 355 354 352 351 350 352 350 347 344 341 338 336 335 330 321 314 308 300 293 290 283 257 263 261 249 255 254 244 232 215 221 204 229 236 184 196 234 258 259 255 251
1 355 355 355 356 354 352 351 347 344 342 340 339 338 336 335 334 334 334 329 323 317 308 299 290 279 264 264 267 253 242 256 255 246 236 227 229 220 189 282 241 214 281 303 226 218 233
352 348 346 347 348 345 344 343 342 341 338 336 336 335 335 332 331 332 333 331 326 316 308 301 288 271 261 273 255 251 257 261 247 238 239 231 229 243 231 233 349 303 17 289 275 155 228
346 345 344 342 340 339 338 336 334 334 333 332 333 334 335 332 328 327 328 329 328 317 307 303 280 260 266 275 266 267 257 245 236 235 230 223 211 223 174 109 2 312 249 225 309 197 134
335 333 332 331 330 329 327 326 326 326 326 326 328 331 332 332 333 333 331 332 325 307 303 303 257 272 256 277 269 285 253 224 231 227 229 208 217 197 79 131 220 206 220 237 230 212 187
325 326 326 324 323 322 321 321 320 319 319 320 322 326 330 332 335 338 339 352 353 300 302 273 270 261 272 267 260 255 237 228 211 200 203 204 169 217 209 208 231 193 211 236 230 191 171
325 324 322 321 320 319 317 316 315 314 314 314 316 317 320 326 332 336 346 21 12 311 305 298 286 265 260 238 265 223 209 193 178 210 183 6 246 241 237 216 243 260 277 265 297 239 195
322 320 320 321 323 322 318 318 317 316 315 314 314 316 316 321 324 327 347 1 349 330 285 299 231 251 272 197 218 226 204 194 183 201 193 187 226 75 202 248 236 227 237 259 252 306 239
323 325 328 331 332 334 334 329 324 325 324 321 320 319 318 318 312 326 324 341 335 324 352 276 213 270 186 183 242 218 196 206 209 225 214 227 265 252 220 245 182 250 222 246 263 276 275
327 327 327 326 327 328 329 330 330 329 329 328 326 322 320 316 305 310 301 321 330 328 334 232 194 174 178 203 154 200 187 208 223 210 139 247 260 257 211 230 160 243 206 233 235 234 324
321 319 317 319 323 322 323 326 328 330 333 331 327 323 317 311 295 291 272 308 316 51 252 250 142 186 216 218 210 160 196 213 233 248 210 239 235 267 218 220 177 171 73 23 43 103 265
320 318 315 310 308 314 316 318 320 326 333 333 333 323 312 305 296 266 268 305 42 172 328 9 32 346 304 237 255 181 168 200 212 320 275 330 233 254 188 258 14 121 78 310 301 288 248
321 321 321 319 317 311 305 308 309 316 324 328 331 326 313 296 280 252 239 62 207 227 266 18 341 315 233 278 259 163 133 271 256 141 337 214 324 169 165 183 199 182 171 185 257 229 271
318 318 318 312 320 320 315 308 304 309 319 326 331 324 306 281 226 207 171 176 226 252 347 354 339 355 309 38 17 12 248 248 308 177 186 287 267 270 185 232 146 167 182 237 294 276 284
330 325 327 325 307 313 309 314 311 309 316 327 332 322 322 2 193 187 181 233 244 353 7 355 225 239 259 316 17 33 306 14 345 62 329 324 301 242 317 209 218 177 182 342 332 276 262
322 326 327 326 318 310 315 308 316 316 315 325 332 323 329 340 147 197 206 232 259 291 339 301 301 309 313 345 301 329 274 318 5 325 356 334 211 286 20 205 221 271 257 232 233 191 272
312 311 315 318 322 304 311 314 308 315 318 321 319 312 263 147 315 257 225 238 269 263 304 280 232 231 228 208 233 225 233 208 354 14 14 19 326 279 238 243 227 223 262 274 255 266 242
304 303 303 305 308 313 307 301 303 299 310 317 303 267 267 228 219 236 273 282 289 273 265 258 284 212 335 184 273 233 242 155 84 73 69 336 313 308 313 0 17 69 41 331 275 270 259
295 297 296 296 299 301 303 307 295 294 293 287 282 306 258 208 233 252 268 269 259 294 264 234 231 231 208 242 214 256 254 255 12 146 176 137 237 227 264 266 312 289 289 293 283 273 291
293 295 294 293 294 294 301 302 298 286 273 257 219 243 245 219 230 223 222 286 274 295 300 251 253 226 228 278 263 236 239 310 290 281 267 155 237 230 257 272 268 272 277 275 270 269 261
287 289 288 288 286 291 293 295 293 280 274 254 226 231 234 254 246 185 201 208 224 280 251 256 264 298 296 247 246 263 246 210 253 291 188 187 261 274 274 267 270 272 271 268 270 273 269
281 279 282 283 283 283 286 286 281 279 264 257 257 241 258 220 218 164 215 221 217 200 248 236 275 288 286 260 253 247 256 263 248 223 222 220 238 243 271 285 316 288 320 357 341 51 331
282 287 286 281 277 274 274 279 272 267 258 257 253 257 232 240 219 216 212 222 228 231 246 261 276 228 262 261 297 284 263 251 256 248 235 252 257 246 270 46 218 189 143 81 10 76 14
286 284 288 285 277 274 273 275 271 264 262 259 257 254 257 252 233 228 240 235 255 271 258 267 268 265 261 265 236 325 317 356 265 208 216 221 219 254 264 231 341 74 27 342 13 255 15
281 282 283 281 281 277 277 273 267 263 259 259 262 248 249 262 243 233 228 229 220 220 281 251 259 247 216 209 188 203 229 231 288 195 25 96 216 220 27 256 246 136 313 318 278 261 5
281 282 279 279 281 279 277 277 274 267 259 256 261 252 247 256 258 229 211 204 186 195 223 220 224 205 207 202 228 197 244 191 245 200 176 141 152 223 247 257 99 332 311 317 197 326 335
287 281 279 279 279 279 277 280 276 274 265 253 262 256 246 236 253 234 229 207 196 198 222 195 292 215 186 204 189 209 187 218 212 239 174 166 170 211 241 228 244 349 38 64 317 321 330
290 286 281 280 276 279 278 275 279 276 271 258 263 257 251 229 240 235 231 235 246 258 256 223 262 218 221 185 222 153 204 50 170 268 18 123 316 350 3 78 97 36 51 9 360 337 337